ROMMA est une association bénévole à but non lucratif. Votre soutien est indispensable : ADHERER à ROMMA ou FAIRE un DON

Crest - (26, Drôme)

Vallée de la Drôme (315 m)   Longitude: 5°2' E   Latitude: 44°44' N Station partenaire n°62
 

Détail journalier du     <<     >>

Température Precipitation Humidité Pression Vent Dir Rafale Dir. rafale Ensol.
Heure (°C) (mm) (%) (hPa) (km/h) (km/h) (min)
01:00 3.808910212SSE13SO0
02:00 2.809010212SSO8SE0
03:00 2.908810213SE10SE0
04:00 2.308710212S8SE0
05:00 1.409010213S10SE0
06:00 2.209010202S6SE0
07:00 1.809010212SSE8SE0
08:00 2.708910212SSE8SSE0
09:00 2.208910212SSE8SE27
10:00 5.308010212SE10SE60
11:00 6.707310214ESE11ESE60
12:00 8.806710205ESE11ESE60
13:00 10.706210196ESE15ESE60
14:00 12.105710184ESE13ESE54
15:00 11.905910179SE24SE58
16:00 11.4062101811SE23SE60
17:00 10.006510184SSE19SE20
18:00 8.607210184SSE11SSE0
19:00 7.807510181SE6SE0
20:00 7.807510182SE8SE0
21:00 6.80.58310184SE16ESE0
22:00 7.408410172E11ENE0
23:00 7.308610174ESE11ESE0
minuit 6.908710174SE15ESE0

Graphique du 08-12-2019

 

Serveur OMMA